date,time,SUV Intensity [MED/Hr],UV Index,Daily total [MED],Since Last [MED]
01/05/2022,00:07:32,0.000,0.0,0.0,0.0
01/05/2022,00:08:32,0.000,0.0,0.0,0.0
01/05/2022,00:09:33,-0.001,0.0,0.0,0.0
01/05/2022,00:10:33,-0.001,0.0,0.0,0.0
01/05/2022,00:11:33,-0.000,0.0,0.0,0.0
01/05/2022,00:12:33,0.000,0.0,0.0,0.0
01/05/2022,00:13:41,0.000,0.0,0.0,0.0
01/05/2022,00:14:31,0.000,0.0,0.0,0.0
01/05/2022,00:15:33,0.001,0.0,0.0,0.0
01/05/2022,00:16:41,-0.000,0.0,0.0,0.0
01/05/2022,00:18:33,-0.001,0.0,0.0,0.0
01/05/2022,00:19:33,0.001,0.0,0.0,0.0
01/05/2022,00:20:33,-0.000,0.0,0.0,0.0
01/05/2022,00:21:32,-0.001,0.0,0.0,0.0
01/05/2022,00:22:32,-0.001,0.0,0.0,0.0
01/05/2022,00:23:33,0.000,0.0,0.0,0.0
01/05/2022,00:24:33,-0.001,0.0,0.0,0.0
01/05/2022,00:25:32,-0.001,0.0,0.0,0.0
01/05/2022,00:26:41,0.000,0.0,0.0,0.0
01/05/2022,00:27:32,-0.001,0.0,0.0,0.0
01/05/2022,00:28:32,-0.000,0.0,0.0,0.0
01/05/2022,00:29:33,-0.001,0.0,0.0,0.0
01/05/2022,00:30:32,0.000,0.0,0.0,0.0
01/05/2022,00:31:33,-0.000,0.0,0.0,0.0
01/05/2022,00:32:33,-0.001,0.0,0.0,0.0
01/05/2022,00:33:32,0.001,0.0,0.0,0.0
01/05/2022,00:34:33,-0.000,0.0,0.0,0.0
01/05/2022,00:35:32,0.000,0.0,0.0,0.0
01/05/2022,00:36:33,0.000,0.0,0.0,0.0
01/05/2022,00:37:33,0.000,0.0,0.0,0.0
01/05/2022,00:38:33,0.000,0.0,0.0,0.0
01/05/2022,00:39:33,-0.001,0.0,0.0,0.0
01/05/2022,00:40:41,0.000,0.0,0.0,0.0
01/05/2022,00:41:32,0.000,0.0,0.0,0.0
01/05/2022,00:42:33,-0.000,0.0,0.0,0.0
01/05/2022,00:43:32,-0.000,0.0,0.0,0.0
01/05/2022,00:44:33,0.001,0.0,0.0,0.0
01/05/2022,00:45:33,0.000,0.0,0.0,0.0
01/05/2022,00:46:33,0.000,0.0,0.0,0.0
01/05/2022,00:47:33,-0.000,0.0,0.0,0.0
01/05/2022,00:48:33,-0.001,0.0,0.0,0.0
01/05/2022,00:49:33,0.000,0.0,0.0,0.0
01/05/2022,00:50:42,0.000,0.0,0.0,0.0
01/05/2022,00:51:33,-0.000,0.0,0.0,0.0
01/05/2022,00:52:33,0.001,0.0,0.0,0.0
01/05/2022,00:53:33,-0.000,0.0,0.0,0.0
01/05/2022,00:54:32,0.000,0.0,0.0,0.0
01/05/2022,00:55:32,0.001,0.0,0.0,0.0
01/05/2022,00:56:32,0.000,0.0,0.0,0.0
01/05/2022,00:57:33,0.000,0.0,0.0,0.0
01/05/2022,00:58:33,0.000,0.0,0.0,0.0
01/05/2022,00:59:32,-0.001,0.0,0.0,0.0
01/05/2022,01:00:42,-0.001,0.0,0.0,0.0
01/05/2022,01:02:33,-0.001,0.0,0.0,0.0
01/05/2022,01:03:50,0.001,0.0,0.0,0.0
01/05/2022,01:05:33,0.000,0.0,0.0,0.0
01/05/2022,01:06:33,0.000,0.0,0.0,0.0
01/05/2022,01:07:33,0.000,0.0,0.0,0.0
01/05/2022,01:08:33,0.000,0.0,0.0,0.0
01/05/2022,01:09:32,-0.000,0.0,0.0,0.0
01/05/2022,01:10:33,0.000,0.0,0.0,0.0
01/05/2022,01:11:32,-0.000,0.0,0.0,0.0
01/05/2022,01:12:33,0.000,0.0,0.0,0.0
01/05/2022,01:13:42,0.001,0.0,0.0,0.0
01/05/2022,01:15:34,0.001,0.0,0.0,0.0
01/05/2022,01:16:34,0.001,0.0,0.0,0.0
01/05/2022,01:17:33,0.000,0.0,0.0,0.0
01/05/2022,01:18:33,-0.000,0.0,0.0,0.0
01/05/2022,01:19:33,-0.000,0.0,0.0,0.0
01/05/2022,01:20:33,-0.000,0.0,0.0,0.0
01/05/2022,01:21:33,0.000,0.0,0.0,0.0
01/05/2022,01:22:33,0.000,0.0,0.0,0.0
01/05/2022,01:23:33,0.000,0.0,0.0,0.0
01/05/2022,01:24:33,-0.000,0.0,0.0,0.0
01/05/2022,01:25:33,-0.000,0.0,0.0,0.0
01/05/2022,01:26:32,0.000,0.0,0.0,0.0
01/05/2022,01:27:33,0.000,0.0,0.0,0.0
01/05/2022,01:28:33,-0.001,0.0,0.0,0.0
01/05/2022,01:29:33,0.000,0.0,0.0,0.0
01/05/2022,01:30:32,0.000,0.0,0.0,0.0
01/05/2022,01:31:33,-0.000,0.0,0.0,0.0
01/05/2022,01:32:33,0.000,0.0,0.0,0.0
01/05/2022,01:33:33,-0.000,0.0,0.0,0.0
01/05/2022,01:34:33,0.001,0.0,0.0,0.0
01/05/2022,01:35:33,-0.000,0.0,0.0,0.0
01/05/2022,01:36:41,-0.001,0.0,0.0,0.0
01/05/2022,01:37:40,0.001,0.0,0.0,0.0
01/05/2022,01:38:32,0.001,0.0,0.0,0.0
01/05/2022,01:39:33,0.000,0.0,0.0,0.0
01/05/2022,01:40:32,-0.000,0.0,0.0,0.0
01/05/2022,01:41:33,0.000,0.0,0.0,0.0
01/05/2022,01:42:33,-0.000,0.0,0.0,0.0
01/05/2022,01:43:33,-0.001,0.0,0.0,0.0
01/05/2022,01:44:33,-0.000,0.0,0.0,0.0
01/05/2022,01:45:33,-0.001,0.0,0.0,0.0
01/05/2022,01:46:33,-0.001,0.0,0.0,0.0
01/05/2022,01:47:33,-0.001,0.0,0.0,0.0
01/05/2022,01:48:32,-0.001,0.0,0.0,0.0
01/05/2022,01:49:33,-0.000,0.0,0.0,0.0
01/05/2022,01:50:33,-0.000,0.0,0.0,0.0
01/05/2022,01:51:33,0.001,0.0,0.0,0.0
01/05/2022,01:52:32,0.000,0.0,0.0,0.0
01/05/2022,01:53:41,0.000,0.0,0.0,0.0
01/05/2022,01:54:33,-0.000,0.0,0.0,0.0
01/05/2022,01:55:33,0.001,0.0,0.0,0.0
01/05/2022,01:56:33,-0.001,0.0,0.0,0.0
01/05/2022,01:57:33,0.000,0.0,0.0,0.0
01/05/2022,01:58:33,0.000,0.0,0.0,0.0
01/05/2022,01:59:33,0.000,0.0,0.0,0.0
01/05/2022,02:00:34,0.000,0.0,0.0,0.0
01/05/2022,02:01:33,0.000,0.0,0.0,0.0
01/05/2022,02:02:33,-0.000,0.0,0.0,0.0
01/05/2022,02:03:41,0.001,0.0,0.0,0.0
01/05/2022,02:04:28,0.001,0.0,0.0,0.0
01/05/2022,02:05:33,0.001,0.0,0.0,0.0
01/05/2022,02:06:33,0.001,0.0,0.0,0.0
01/05/2022,02:07:34,0.000,0.0,0.0,0.0
01/05/2022,02:08:33,-0.001,0.0,0.0,0.0
01/05/2022,02:09:33,0.000,0.0,0.0,0.0
01/05/2022,02:10:33,0.000,0.0,0.0,0.0
01/05/2022,02:11:41,0.001,0.0,0.0,0.0
01/05/2022,02:12:33,0.000,0.0,0.0,0.0
01/05/2022,02:13:33,0.000,0.0,0.0,0.0
01/05/2022,02:14:41,0.000,0.0,0.0,0.0
01/05/2022,02:16:33,-0.001,0.0,0.0,0.0
01/05/2022,02:17:33,0.000,0.0,0.0,0.0
01/05/2022,02:18:33,-0.000,0.0,0.0,0.0
01/05/2022,02:19:33,0.000,0.0,0.0,0.0
01/05/2022,02:20:41,0.001,0.0,0.0,0.0
01/05/2022,02:21:32,0.000,0.0,0.0,0.0
01/05/2022,02:22:33,-0.000,0.0,0.0,0.0
01/05/2022,02:23:33,-0.001,0.0,0.0,0.0
01/05/2022,02:24:33,0.000,0.0,0.0,0.0
01/05/2022,02:25:33,0.000,0.0,0.0,0.0
01/05/2022,02:26:33,0.000,0.0,0.0,0.0
01/05/2022,02:27:32,-0.001,0.0,0.0,0.0
01/05/2022,02:28:33,0.000,0.0,0.0,0.0
01/05/2022,02:29:33,0.000,0.0,0.0,0.0
01/05/2022,02:30:33,0.001,0.0,0.0,0.0
01/05/2022,02:31:33,0.000,0.0,0.0,0.0
01/05/2022,02:32:33,0.000,0.0,0.0,0.0
01/05/2022,02:33:33,0.000,0.0,0.0,0.0
01/05/2022,02:34:33,0.000,0.0,0.0,0.0
01/05/2022,02:35:33,-0.000,0.0,0.0,0.0
01/05/2022,02:36:33,0.001,0.0,0.0,0.0
01/05/2022,02:37:33,-0.001,0.0,0.0,0.0
01/05/2022,02:38:33,0.001,0.0,0.0,0.0
01/05/2022,02:39:33,0.000,0.0,0.0,0.0
01/05/2022,02:40:33,-0.000,0.0,0.0,0.0
01/05/2022,02:41:41,0.000,0.0,0.0,0.0
01/05/2022,02:43:34,0.001,0.0,0.0,0.0
01/05/2022,02:44:33,0.000,0.0,0.0,0.0
01/05/2022,02:45:33,0.000,0.0,0.0,0.0
01/05/2022,02:46:33,0.000,0.0,0.0,0.0
01/05/2022,02:47:33,0.000,0.0,0.0,0.0
01/05/2022,02:48:33,0.001,0.0,0.0,0.0
01/05/2022,02:49:33,0.001,0.0,0.0,0.0
01/05/2022,02:50:50,0.000,0.0,0.0,0.0
01/05/2022,02:52:33,-0.001,0.0,0.0,0.0
01/05/2022,02:53:33,0.000,0.0,0.0,0.0
01/05/2022,02:54:42,0.000,0.0,0.0,0.0
01/05/2022,02:56:34,0.000,0.0,0.0,0.0
01/05/2022,02:57:33,0.000,0.0,0.0,0.0
01/05/2022,02:58:33,0.001,0.0,0.0,0.0
01/05/2022,02:59:33,0.000,0.0,0.0,0.0
01/05/2022,03:00:33,-0.000,0.0,0.0,0.0
01/05/2022,03:01:41,0.001,0.0,0.0,0.0
01/05/2022,03:02:32,0.001,0.0,0.0,0.0
01/05/2022,03:03:33,-0.000,0.0,0.0,0.0
01/05/2022,03:04:42,0.000,0.0,0.0,0.0
01/05/2022,03:06:33,0.000,0.0,0.0,0.0
01/05/2022,03:07:33,0.000,0.0,0.0,0.0
01/05/2022,03:08:33,0.000,0.0,0.0,0.0
01/05/2022,03:09:33,0.001,0.0,0.0,0.0
01/05/2022,03:10:33,0.000,0.0,0.0,0.0
01/05/2022,03:11:33,0.000,0.0,0.0,0.0
01/05/2022,03:12:33,0.000,0.0,0.0,0.0
01/05/2022,03:13:33,-0.001,0.0,0.0,0.0
01/05/2022,03:14:33,0.000,0.0,0.0,0.0
01/05/2022,03:15:33,0.000,0.0,0.0,0.0
01/05/2022,03:16:33,-0.001,0.0,0.0,0.0
01/05/2022,03:17:33,0.001,0.0,0.0,0.0
01/05/2022,03:18:33,0.000,0.0,0.0,0.0
01/05/2022,03:19:34,0.001,0.0,0.0,0.0
01/05/2022,03:20:33,0.001,0.0,0.0,0.0
01/05/2022,03:21:33,0.000,0.0,0.0,0.0
01/05/2022,03:22:33,-0.000,0.0,0.0,0.0
01/05/2022,03:23:33,0.001,0.0,0.0,0.0
01/05/2022,03:24:33,0.000,0.0,0.0,0.0
01/05/2022,03:25:33,0.000,0.0,0.0,0.0
01/05/2022,03:26:33,-0.001,0.0,0.0,0.0
01/05/2022,03:27:33,0.001,0.0,0.0,0.0
01/05/2022,03:28:33,0.000,0.0,0.0,0.0
01/05/2022,03:29:33,0.000,0.0,0.0,0.0
01/05/2022,03:30:34,0.000,0.0,0.0,0.0
01/05/2022,03:31:33,0.000,0.0,0.0,0.0
01/05/2022,03:32:42,0.000,0.0,0.0,0.0
01/05/2022,03:34:33,0.001,0.0,0.0,0.0
01/05/2022,03:35:33,0.001,0.0,0.0,0.0
01/05/2022,03:36:33,0.001,0.0,0.0,0.0
01/05/2022,03:37:33,0.001,0.0,0.0,0.0
01/05/2022,03:38:33,0.001,0.0,0.0,0.0
01/05/2022,03:39:33,0.000,0.0,0.0,0.0
01/05/2022,03:40:40,0.001,0.0,0.0,0.0
01/05/2022,03:42:34,0.001,0.0,0.0,0.0
01/05/2022,03:43:35,0.000,0.0,0.0,0.0
01/05/2022,03:44:33,0.000,0.0,0.0,0.0
01/05/2022,03:45:33,0.001,0.0,0.0,0.0
01/05/2022,03:46:33,0.000,0.0,0.0,0.0
01/05/2022,03:47:33,0.001,0.0,0.0,0.0
01/05/2022,03:48:33,0.000,0.0,0.0,0.0
01/05/2022,03:49:42,0.000,0.0,0.0,0.0
01/05/2022,03:50:33,0.001,0.0,0.0,0.0
01/05/2022,03:51:33,0.001,0.0,0.0,0.0
01/05/2022,03:52:34,0.000,0.0,0.0,0.0
01/05/2022,03:53:33,0.000,0.0,0.0,0.0
01/05/2022,03:54:33,-0.001,0.0,0.0,0.0
01/05/2022,03:55:34,0.000,0.0,0.0,0.0
01/05/2022,03:56:33,0.000,0.0,0.0,0.0
01/05/2022,03:57:33,-0.000,0.0,0.0,0.0
01/05/2022,03:58:33,0.000,0.0,0.0,0.0
01/05/2022,03:59:33,0.000,0.0,0.0,0.0
01/05/2022,04:00:33,0.001,0.0,0.0,0.0
01/05/2022,04:01:33,0.001,0.0,0.0,0.0
01/05/2022,04:02:33,0.001,0.0,0.0,0.0
01/05/2022,04:03:33,0.001,0.0,0.0,0.0
01/05/2022,04:04:33,0.001,0.0,0.0,0.0
01/05/2022,04:05:33,0.001,0.0,0.0,0.0
01/05/2022,04:06:33,0.000,0.0,0.0,0.0
01/05/2022,04:07:33,0.000,0.0,0.0,0.0
01/05/2022,04:08:33,0.000,0.0,0.0,0.0
01/05/2022,04:09:33,0.000,0.0,0.0,0.0
01/05/2022,04:10:41,0.000,0.0,0.0,0.0
01/05/2022,04:12:33,0.000,0.0,0.0,0.0
01/05/2022,04:13:33,-0.000,0.0,0.0,0.0
01/05/2022,04:14:33,-0.000,0.0,0.0,0.0
01/05/2022,04:15:33,-0.000,0.0,0.0,0.0
01/05/2022,04:16:33,-0.000,0.0,0.0,0.0
01/05/2022,04:17:33,0.000,0.0,0.0,0.0
01/05/2022,04:18:33,0.002,0.0,0.0,0.0
01/05/2022,04:19:33,0.001,0.0,0.0,0.0
01/05/2022,04:20:41,0.001,0.0,0.0,0.0
01/05/2022,04:22:34,0.001,0.0,0.0,0.0
01/05/2022,04:23:41,0.001,0.0,0.0,0.0
01/05/2022,04:25:34,0.001,0.0,0.0,0.0
01/05/2022,04:26:33,0.001,0.0,0.0,0.0
01/05/2022,04:27:33,0.001,0.0,0.0,0.0
01/05/2022,04:28:33,0.000,0.0,0.0,0.0
01/05/2022,04:29:33,0.000,0.0,0.0,0.0
01/05/2022,04:30:42,0.001,0.0,0.0,0.0
01/05/2022,04:32:33,0.001,0.0,0.0,0.0
01/05/2022,04:33:34,0.002,0.0,0.0,0.0
01/05/2022,04:35:34,0.001,0.0,0.0,0.0
01/05/2022,04:36:33,0.001,0.0,0.0,0.0
01/05/2022,04:37:33,0.001,0.0,0.0,0.0
01/05/2022,04:38:34,0.002,0.0,0.0,0.0
01/05/2022,04:39:33,0.001,0.0,0.0,0.0
01/05/2022,04:40:33,0.002,0.0,0.0,0.0
01/05/2022,04:41:34,0.002,0.0,0.0,0.0
01/05/2022,04:42:33,0.002,0.0,0.0,0.0
01/05/2022,04:43:33,0.002,0.0,0.0,0.0
01/05/2022,04:44:33,0.002,0.0,0.0,0.0
01/05/2022,04:45:34,0.002,0.0,0.0,0.0
01/05/2022,04:46:33,0.002,0.0,0.0,0.0
01/05/2022,04:47:33,0.002,0.0,0.0,0.0
01/05/2022,04:48:33,0.003,0.0,0.0,0.0
01/05/2022,04:49:33,0.003,0.0,0.0,0.0
01/05/2022,04:50:33,0.003,0.0,0.0,0.0
01/05/2022,04:51:33,0.003,0.0,0.0,0.0
01/05/2022,04:52:34,0.003,0.0,0.0,0.0
01/05/2022,04:53:33,0.004,0.0,0.0,0.0
01/05/2022,04:54:42,0.003,0.0,0.0,0.0
01/05/2022,04:55:33,0.004,0.0,0.0,0.0
01/05/2022,04:56:34,0.004,0.0,0.0,0.0
01/05/2022,04:57:33,0.004,0.0,0.0,0.0
01/05/2022,04:58:33,0.006,0.0,0.0,0.0
01/05/2022,04:59:33,0.004,0.0,0.0,0.0
01/05/2022,05:00:33,0.004,0.0,0.0,0.0
01/05/2022,05:01:34,0.005,0.0,0.0,0.0
01/05/2022,05:02:33,0.005,0.0,0.0,0.0
01/05/2022,05:03:41,0.006,0.0,0.0,0.0
01/05/2022,05:04:33,0.006,0.0,0.0,0.0
01/05/2022,05:05:33,0.006,0.0,0.0,0.0
01/05/2022,05:06:33,0.006,0.0,0.0,0.0
01/05/2022,05:07:41,0.007,0.0,0.0,0.0
01/05/2022,05:08:32,0.007,0.0,0.0,0.0
01/05/2022,05:09:33,0.006,0.0,0.001,0.001
01/05/2022,05:10:34,0.007,0.0,0.001,0.0
01/05/2022,05:11:33,0.008,0.0,0.001,0.0
01/05/2022,05:12:33,0.008,0.0,0.001,0.0
01/05/2022,05:13:34,0.009,0.0,0.001,0.0
01/05/2022,05:14:33,0.008,0.0,0.001,0.0
01/05/2022,05:15:41,0.009,0.0,0.001,0.0
01/05/2022,05:17:34,0.010,0.0,0.002,0.001
01/05/2022,05:18:33,0.010,0.0,0.002,0.0
01/05/2022,05:19:34,0.011,0.0,0.002,0.0
01/05/2022,05:20:33,0.011,0.0,0.002,0.0
01/05/2022,05:21:33,0.011,0.0,0.002,0.0
01/05/2022,05:22:33,0.013,0.0,0.003,0.001
01/05/2022,05:23:33,0.012,0.0,0.003,0.0
01/05/2022,05:24:33,0.012,0.0,0.003,0.0
01/05/2022,05:26:06,0.014,0.0,0.003,0.0
01/05/2022,05:27:34,0.014,0.0,0.004,0.001
01/05/2022,05:28:43,0.015,0.0,0.004,0.0
01/05/2022,05:30:34,0.017,0.0,0.004,0.0
01/05/2022,05:31:35,0.017,0.0,0.005,0.001
01/05/2022,05:32:32,0.018,0.0,0.005,0.0
01/05/2022,05:33:33,0.018,0.0,0.005,0.0
01/05/2022,05:34:33,0.019,0.0,0.006,0.001
01/05/2022,05:35:41,0.020,0.0,0.006,0.0
01/05/2022,05:36:33,0.020,0.0,0.006,0.0
01/05/2022,05:37:33,0.021,0.0,0.007,0.001
01/05/2022,05:38:41,0.022,0.0,0.007,0.0
01/05/2022,05:39:33,0.022,0.0,0.007,0.0
01/05/2022,05:40:33,0.023,0.0,0.008,0.001
01/05/2022,05:41:33,0.023,0.0,0.008,0.0
01/05/2022,05:42:33,0.024,0.0,0.008,0.0
01/05/2022,05:43:34,0.025,0.0,0.009,0.001
01/05/2022,05:44:33,0.026,0.0,0.009,0.0
01/05/2022,05:45:33,0.027,0.0,0.01,0.001
01/05/2022,05:46:41,0.027,0.0,0.01,0.0
01/05/2022,05:48:33,0.030,0.0,0.011,0.001
01/05/2022,05:49:33,0.030,0.0,0.012,0.001
01/05/2022,05:50:34,0.031,0.0,0.012,0.0
01/05/2022,05:51:33,0.031,0.0,0.013,0.001
01/05/2022,05:52:33,0.033,0.0,0.013,0.0
01/05/2022,05:53:34,0.033,0.0,0.014,0.001
01/05/2022,05:54:34,0.035,0.0,0.014,0.0
01/05/2022,05:55:34,0.035,0.0,0.015,0.001
01/05/2022,05:56:42,0.037,0.0,0.016,0.001
01/05/2022,05:57:33,0.037,0.0,0.016,0.0
01/05/2022,05:58:33,0.037,0.0,0.017,0.001
01/05/2022,05:59:33,0.038,0.0,0.017,0.0
01/05/2022,06:00:33,0.038,0.0,0.018,0.001
01/05/2022,06:01:33,0.040,0.0,0.019,0.001
01/05/2022,06:02:33,0.040,0.0,0.019,0.0
01/05/2022,06:03:42,0.041,0.0,0.02,0.001
01/05/2022,06:04:33,0.041,0.0,0.021,0.001
01/05/2022,06:05:34,0.042,0.0,0.021,0.0
01/05/2022,06:06:41,0.042,0.0,0.022,0.001
01/05/2022,06:07:33,0.044,0.0,0.023,0.001
01/05/2022,06:08:33,0.044,0.0,0.023,0.0
01/05/2022,06:09:33,0.045,0.0,0.024,0.001
01/05/2022,06:10:42,0.045,0.0,0.025,0.001
01/05/2022,06:12:34,0.048,0.0,0.026,0.001
01/05/2022,06:13:33,0.049,0.0,0.027,0.001
01/05/2022,06:14:34,0.049,0.0,0.028,0.001
01/05/2022,06:15:35,0.052,0.0,0.029,0.001
01/05/2022,06:16:33,0.052,0.0,0.03,0.001
01/05/2022,06:17:42,0.054,0.0,0.031,0.001
01/05/2022,06:19:34,0.056,0.0,0.033,0.002
01/05/2022,06:20:34,0.058,0.0,0.033,0.0
01/05/2022,06:21:33,0.058,0.0,0.034,0.001
01/05/2022,06:22:34,0.061,0.0,0.035,0.001
01/05/2022,06:23:33,0.062,0.0,0.036,0.001
01/05/2022,06:24:33,0.063,0.0,0.037,0.001
01/05/2022,06:25:33,0.063,0.0,0.039,0.002
01/05/2022,06:26:33,0.065,0.0,0.04,0.001
01/05/2022,06:27:33,0.066,0.0,0.041,0.001
01/05/2022,06:28:33,0.067,0.0,0.042,0.001
01/05/2022,06:29:33,0.069,0.0,0.043,0.001
01/05/2022,06:30:33,0.070,0.0,0.044,0.001
01/05/2022,06:31:33,0.071,0.0,0.045,0.001
01/05/2022,06:32:35,0.072,0.0,0.047,0.002
01/05/2022,06:33:33,0.073,0.0,0.048,0.001
01/05/2022,06:34:42,0.075,0.0,0.049,0.001
01/05/2022,06:36:34,0.076,0.0,0.051,0.002
01/05/2022,06:37:33,0.078,0.0,0.053,0.002
01/05/2022,06:38:33,0.080,0.0,0.054,0.001
01/05/2022,06:39:33,0.084,0.0,0.055,0.001
01/05/2022,06:40:33,0.086,0.0,0.057,0.002
01/05/2022,06:41:41,0.088,0.0,0.058,0.001
01/05/2022,06:43:34,0.090,0.0,0.061,0.003
01/05/2022,06:44:42,0.090,0.0,0.063,0.002
01/05/2022,06:45:34,0.089,0.0,0.064,0.001
01/05/2022,06:46:33,0.090,0.0,0.066,0.002
01/05/2022,06:47:33,0.092,0.0,0.067,0.001
01/05/2022,06:48:34,0.094,0.0,0.069,0.002
01/05/2022,06:49:33,0.094,0.0,0.07,0.001
01/05/2022,06:50:33,0.095,0.0,0.072,0.002
01/05/2022,06:51:33,0.095,0.0,0.074,0.002
01/05/2022,06:52:33,0.096,0.0,0.075,0.001
01/05/2022,06:53:34,0.096,0.0,0.077,0.002
01/05/2022,06:54:33,0.094,0.0,0.078,0.001
01/05/2022,06:55:33,0.094,0.0,0.08,0.002
01/05/2022,06:56:33,0.094,0.0,0.081,0.001
01/05/2022,06:57:34,0.095,0.0,0.083,0.002
01/05/2022,06:58:33,0.096,0.0,0.085,0.002
01/05/2022,06:59:34,0.098,0.0,0.086,0.001
01/05/2022,07:00:33,0.099,0.0,0.088,0.002
01/05/2022,07:01:34,0.100,0.0,0.09,0.002
01/05/2022,07:02:35,0.102,0.0,0.091,0.001
01/05/2022,07:03:33,0.103,0.0,0.093,0.002
01/05/2022,07:04:33,0.105,0.0,0.095,0.002
01/05/2022,07:05:42,0.108,0.0,0.097,0.002
01/05/2022,07:07:34,0.113,0.0,0.1,0.003
01/05/2022,07:08:34,0.115,0.0,0.102,0.002
01/05/2022,07:09:33,0.117,0.0,0.104,0.002
01/05/2022,07:10:33,0.120,0.0,0.106,0.002
01/05/2022,07:11:33,0.121,0.0,0.108,0.002
01/05/2022,07:12:41,0.121,0.0,0.11,0.002
01/05/2022,07:13:24,0.121,0.0,0.112,0.002
01/05/2022,07:14:34,0.122,0.0,0.114,0.002
01/05/2022,07:15:42,0.122,0.0,0.116,0.002
01/05/2022,07:16:35,0.123,0.0,0.118,0.002
01/05/2022,07:17:33,0.124,0.0,0.12,0.002
01/05/2022,07:18:34,0.126,0.0,0.122,0.002
01/05/2022,07:19:33,0.129,0.0,0.124,0.002
01/05/2022,07:20:34,0.132,0.0,0.127,0.003
01/05/2022,07:21:33,0.136,0.0,0.129,0.002
01/05/2022,07:22:33,0.138,0.0,0.131,0.002
01/05/2022,07:23:34,0.141,0.0,0.133,0.002
01/05/2022,07:24:33,0.144,0.0,0.136,0.003
01/05/2022,07:25:34,0.151,0.0,0.138,0.002
01/05/2022,07:26:41,0.159,0.0,0.141,0.003
01/05/2022,07:27:33,0.166,0.0,0.143,0.002
01/05/2022,07:28:34,0.175,0.0,0.146,0.003
01/05/2022,07:29:34,0.184,0.0,0.149,0.003
01/05/2022,07:30:34,0.195,0.0,0.152,0.003
01/05/2022,07:31:33,0.206,0.0,0.156,0.004
01/05/2022,07:32:34,0.216,0.0,0.159,0.003
01/05/2022,07:33:33,0.227,1.0,0.163,0.004
01/05/2022,07:34:33,0.237,1.0,0.167,0.004
01/05/2022,07:35:33,0.247,1.0,0.171,0.004
01/05/2022,07:36:42,0.256,1.0,0.176,0.005
01/05/2022,07:38:34,0.269,1.0,0.184,0.008
01/05/2022,07:39:42,0.275,1.0,0.189,0.005
01/05/2022,07:40:33,0.279,1.0,0.193,0.004
01/05/2022,07:41:33,0.283,1.0,0.197,0.004
01/05/2022,07:42:34,0.289,1.0,0.202,0.005
01/05/2022,07:43:33,0.291,1.0,0.207,0.005
01/05/2022,07:44:33,0.292,1.0,0.212,0.005
01/05/2022,07:45:33,0.292,1.0,0.217,0.005
01/05/2022,07:46:42,0.287,1.0,0.222,0.005
01/05/2022,07:48:34,0.271,1.0,0.231,0.009
01/05/2022,07:49:33,0.263,1.0,0.236,0.005
01/05/2022,07:50:33,0.257,1.0,0.24,0.004
01/05/2022,07:51:34,0.255,1.0,0.244,0.004
01/05/2022,07:52:33,0.258,1.0,0.248,0.004
01/05/2022,07:53:33,0.263,1.0,0.253,0.005
01/05/2022,07:54:33,0.271,1.0,0.257,0.004
01/05/2022,07:55:33,0.274,1.0,0.262,0.005
01/05/2022,07:56:42,0.280,1.0,0.267,0.005
01/05/2022,07:57:42,0.283,1.0,0.272,0.005
01/05/2022,07:58:34,0.286,1.0,0.276,0.004
01/05/2022,07:59:34,0.291,1.0,0.281,0.005
01/05/2022,08:00:33,0.298,1.0,0.285,0.004
01/05/2022,08:01:34,0.309,1.0,0.291,0.006
01/05/2022,08:02:34,0.324,1.0,0.296,0.005
01/05/2022,08:03:34,0.338,1.0,0.301,0.005
01/05/2022,08:04:33,0.352,1.0,0.307,0.006
01/05/2022,08:05:34,0.365,1.0,0.313,0.006
01/05/2022,08:06:33,0.376,1.0,0.319,0.006
01/05/2022,08:07:43,0.383,1.0,0.326,0.007
01/05/2022,08:09:35,0.384,1.0,0.338,0.012
01/05/2022,08:10:33,0.383,1.0,0.345,0.007
01/05/2022,08:11:34,0.383,1.0,0.351,0.006
01/05/2022,08:12:34,0.383,1.0,0.358,0.007
01/05/2022,08:13:33,0.386,1.0,0.364,0.006
01/05/2022,08:14:33,0.391,1.0,0.37,0.006
01/05/2022,08:15:33,0.396,1.0,0.377,0.007
01/05/2022,08:16:33,0.401,1.0,0.384,0.007
01/05/2022,08:17:42,0.407,1.0,0.391,0.007
01/05/2022,08:18:34,0.414,1.0,0.397,0.006
01/05/2022,08:19:33,0.416,1.0,0.404,0.007
01/05/2022,08:20:34,0.419,1.0,0.411,0.007
01/05/2022,08:21:33,0.421,1.0,0.418,0.007
01/05/2022,08:22:33,0.425,1.0,0.425,0.007
01/05/2022,08:23:33,0.432,1.0,0.432,0.007
01/05/2022,08:24:33,0.436,1.0,0.44,0.008
01/05/2022,08:25:33,0.439,1.0,0.447,0.007
01/05/2022,08:26:34,0.441,1.0,0.454,0.007
01/05/2022,08:27:33,0.447,1.0,0.462,0.008
01/05/2022,08:28:34,0.452,1.0,0.469,0.007
01/05/2022,08:29:34,0.459,1.0,0.477,0.008
01/05/2022,08:30:33,0.466,1.0,0.484,0.007
01/05/2022,08:31:42,0.481,1.0,0.493,0.009
01/05/2022,08:32:34,0.495,1.0,0.5,0.007
01/05/2022,08:33:34,0.515,1.0,0.509,0.009
01/05/2022,08:34:34,0.535,1.0,0.518,0.009
01/05/2022,08:35:33,0.554,1.0,0.526,0.008
01/05/2022,08:36:34,0.572,1.0,0.536,0.01
01/05/2022,08:37:33,0.583,1.0,0.546,0.01
01/05/2022,08:38:33,0.582,1.0,0.555,0.009
01/05/2022,08:39:33,0.578,1.0,0.565,0.01
01/05/2022,08:40:33,0.572,1.0,0.574,0.009
01/05/2022,08:41:41,0.562,1.0,0.585,0.011
01/05/2022,08:42:32,0.556,1.0,0.593,0.008
01/05/2022,08:43:34,0.548,1.0,0.603,0.01
01/05/2022,08:44:34,0.540,1.0,0.612,0.009
01/05/2022,08:45:33,0.525,1.0,0.621,0.009
01/05/2022,08:46:33,0.511,1.0,0.629,0.008
01/05/2022,08:47:34,0.491,1.0,0.637,0.008
01/05/2022,08:48:34,0.473,1.0,0.645,0.008
01/05/2022,08:49:34,0.458,1.0,0.653,0.008
01/05/2022,08:50:46,0.441,1.0,0.662,0.009
01/05/2022,08:52:35,0.427,1.0,0.675,0.013
01/05/2022,08:53:26,0.426,1.0,0.681,0.006
01/05/2022,08:54:35,0.426,1.0,0.689,0.008
01/05/2022,08:55:34,0.427,1.0,0.696,0.007
01/05/2022,08:56:33,0.424,1.0,0.704,0.008
01/05/2022,08:57:34,0.423,1.0,0.711,0.007
01/05/2022,08:58:33,0.425,1.0,0.718,0.007
01/05/2022,08:59:34,0.425,1.0,0.725,0.007
01/05/2022,09:00:33,0.424,1.0,0.732,0.007
01/05/2022,09:01:34,0.426,1.0,0.739,0.007
01/05/2022,09:02:42,0.436,1.0,0.747,0.008
01/05/2022,09:04:34,0.458,1.0,0.761,0.014
01/05/2022,09:05:41,0.477,1.0,0.77,0.009
01/05/2022,09:06:33,0.489,1.0,0.776,0.006
01/05/2022,09:07:34,0.503,1.0,0.785,0.009
01/05/2022,09:08:34,0.523,1.0,0.794,0.009
01/05/2022,09:09:34,0.539,1.0,0.802,0.008
01/05/2022,09:10:34,0.553,1.0,0.812,0.01
01/05/2022,09:11:34,0.567,1.0,0.821,0.009
01/05/2022,09:12:34,0.589,1.0,0.831,0.01
01/05/2022,09:13:33,0.613,1.0,0.841,0.01
01/05/2022,09:14:34,0.645,1.0,0.851,0.01
01/05/2022,09:15:34,0.676,2.0,0.862,0.011
01/05/2022,09:16:42,0.714,2.0,0.875,0.013
01/05/2022,09:18:34,0.763,2.0,0.898,0.023
01/05/2022,09:19:33,0.782,2.0,0.911,0.013
01/05/2022,09:20:34,0.793,2.0,0.924,0.013
01/05/2022,09:21:34,0.793,2.0,0.937,0.013
01/05/2022,09:22:34,0.786,2.0,0.951,0.014
01/05/2022,09:23:33,0.784,2.0,0.964,0.013
01/05/2022,09:24:33,0.778,2.0,0.977,0.013
01/05/2022,09:25:34,0.761,2.0,0.99,0.013
01/05/2022,09:26:41,0.745,2.0,1.004,0.014
01/05/2022,09:28:34,0.690,2.0,1.026,0.022
01/05/2022,09:29:33,0.646,1.0,1.037,0.011
01/05/2022,09:30:33,0.601,1.0,1.048,0.011
01/05/2022,09:31:34,0.546,1.0,1.057,0.009
01/05/2022,09:32:33,0.519,1.0,1.066,0.009
01/05/2022,09:33:34,0.498,1.0,1.075,0.009
01/05/2022,09:34:34,0.483,1.0,1.083,0.008
01/05/2022,09:35:33,0.480,1.0,1.091,0.008
01/05/2022,09:36:42,0.477,1.0,1.1,0.009
01/05/2022,09:38:34,0.437,1.0,1.114,0.014
01/05/2022,09:39:34,0.428,1.0,1.121,0.007
01/05/2022,09:40:34,0.415,1.0,1.128,0.007
01/05/2022,09:41:34,0.397,1.0,1.135,0.007
01/05/2022,09:42:34,0.389,1.0,1.142,0.007
01/05/2022,09:43:32,0.385,1.0,1.148,0.006
01/05/2022,09:44:33,0.375,1.0,1.154,0.006
01/05/2022,09:45:34,0.369,1.0,1.161,0.007
01/05/2022,09:46:34,0.369,1.0,1.167,0.006
01/05/2022,09:47:34,0.364,1.0,1.173,0.006
01/05/2022,09:48:34,0.361,1.0,1.179,0.006
01/05/2022,09:49:33,0.360,1.0,1.185,0.006
01/05/2022,09:50:34,0.361,1.0,1.191,0.006
01/05/2022,09:51:34,0.365,1.0,1.197,0.006
01/05/2022,09:52:33,0.368,1.0,1.203,0.006
01/05/2022,09:53:42,0.368,1.0,1.21,0.007
01/05/2022,09:54:33,0.369,1.0,1.215,0.005
01/05/2022,09:55:33,0.369,1.0,1.221,0.006
01/05/2022,09:56:34,0.367,1.0,1.228,0.007
01/05/2022,09:57:34,0.369,1.0,1.234,0.006
01/05/2022,09:58:33,0.370,1.0,1.24,0.006
01/05/2022,09:59:33,0.375,1.0,1.246,0.006
01/05/2022,10:00:34,0.385,1.0,1.252,0.006
01/05/2022,10:01:33,0.395,1.0,1.259,0.007
01/05/2022,10:02:34,0.406,1.0,1.266,0.007
01/05/2022,10:03:42,0.412,1.0,1.273,0.007
01/05/2022,10:04:33,0.414,1.0,1.279,0.006
01/05/2022,10:05:33,0.416,1.0,1.286,0.007
01/05/2022,10:06:33,0.422,1.0,1.293,0.007
01/05/2022,10:07:42,0.432,1.0,1.301,0.008
01/05/2022,10:09:35,0.443,1.0,1.315,0.014
01/05/2022,10:10:33,0.443,1.0,1.322,0.007
01/05/2022,10:11:33,0.442,1.0,1.33,0.008
01/05/2022,10:12:34,0.439,1.0,1.337,0.007
01/05/2022,10:13:34,0.439,1.0,1.344,0.007
01/05/2022,10:14:42,0.443,1.0,1.353,0.009
01/05/2022,10:16:34,0.458,1.0,1.367,0.014
01/05/2022,10:17:42,0.474,1.0,1.375,0.008
01/05/2022,10:18:33,0.484,1.0,1.382,0.007
01/05/2022,10:19:33,0.495,1.0,1.39,0.008
01/05/2022,10:20:34,0.501,1.0,1.399,0.009
01/05/2022,10:21:34,0.509,1.0,1.407,0.008
01/05/2022,10:22:34,0.514,1.0,1.416,0.009
01/05/2022,10:23:34,0.519,1.0,1.424,0.008
01/05/2022,10:24:42,0.525,1.0,1.434,0.01
01/05/2022,10:25:34,0.528,1.0,1.442,0.008
01/05/2022,10:26:33,0.531,1.0,1.451,0.009
01/05/2022,10:27:33,0.537,1.0,1.459,0.008
01/05/2022,10:28:34,0.541,1.0,1.468,0.009
01/05/2022,10:29:33,0.548,1.0,1.477,0.009
01/05/2022,10:30:51,0.561,1.0,1.489,0.012
01/05/2022,10:32:34,0.575,1.0,1.506,0.017
01/05/2022,10:33:33,0.587,1.0,1.515,0.009
01/05/2022,10:34:33,0.604,1.0,1.525,0.01
01/05/2022,10:35:34,0.628,1.0,1.535,0.01
01/05/2022,10:36:34,0.654,2.0,1.546,0.011
01/05/2022,10:37:34,0.675,2.0,1.557,0.011
01/05/2022,10:38:34,0.693,2.0,1.569,0.012
01/05/2022,10:39:34,0.704,2.0,1.58,0.011